[[{"header":{"parameterUnit":"m.s-1","parameterCategory":1,"la1":30.2991,"la2":30.254,"lo1":-89.0895,"lo2":-89.0444,"dy":0.0017,"dx":0.0017,"nx":28,"ny":28,"refTime":"2023-07-18T09:00:00:Z","depth":0,"parameterNumber":2,"parameterNumberName":"U-component_of_WINDS"},"data":[0,0,0,0,0,0,0,0,0,0,0,0,0,0,0,0,0,0,0,0,0,0,0,0,0,0,0,0,0,0,0,0,0,0,0,0,0,0,0,0,0,0,0,0,0,0,0,0,0,0,0,0,0,0,0,0,0,0,1.2597,1.2598,0,1.2644,1.2644,1.2645,1.2628,1.2627,1.2626,1.2625,1.2671,1.2674,1.2676,0,0,0,0,0,0,0,0,0,0,0,0,0,1.2492,1.2494,1.2597,1.2598,1.2599,1.2644,1.2644,1.2645,1.2628,1.2627,1.2625,1.2624,1.2671,1.2673,1.2676,0,0,0,0,0,0,0,0,0,0,0,0,0,1.2538,1.2495,1.2597,1.2596,1.2596,1.2644,1.2644,1.2645,1.2628,1.2627,1.2625,1.2624,1.267,1.2673,1.2676,1.2728,0,0,1.2686,1.2688,0,0,0,0,0,0,0,0,1.2536,1.2542,1.2595,1.2596,1.2596,1.2628,1.2624,1.2673,1.2629,1.2616,1.2625,1.2623,1.2658,1.2662,1.2675,1.273,1.2732,1.2687,1.2689,1.269,1.2691,0,0,0,0,0,0,0,1.2532,1.254,1.2616,1.2596,1.2597,1.2592,1.2597,1.2633,1.2645,1.2617,1.2616,1.2622,1.2658,1.2671,1.2676,1.2733,1.2687,1.269,1.2692,1.2693,1.2831,1.2833,0,0,0,0,0,0,1.2529,1.2537,1.2614,1.2617,1.2561,1.2595,1.26,1.262,1.2645,1.2647,1.2623,1.2621,1.2666,1.2672,1.2677,1.2738,1.269,1.2693,1.2695,1.283,1.2832,1.2833,0,0,0,0,0,0,1.2527,1.2536,1.2612,1.2577,1.2586,1.2598,1.262,1.2621,1.2634,1.2649,1.2651,1.2634,1.2665,1.2672,1.2715,1.2739,1.2695,1.2698,1.2828,1.283,1.2833,1.2861,0,0,0,0,0,0,1.2524,1.2536,1.2556,1.2578,1.2588,1.265,1.2622,1.2623,1.264,1.2638,1.2661,1.2663,1.2665,1.271,1.2718,1.2743,1.27,1.2826,1.2829,1.2832,1.2858,1.2864,1.2869,0,0,0,0,0,1.252,1.2562,1.2557,1.2567,1.2614,1.2652,1.2658,1.2659,1.2642,1.2662,1.2672,1.2662,1.2735,1.2715,1.2724,1.275,1.2824,1.2828,1.2832,1.2855,1.2863,1.2869,0,0,0,0,0,0,1.2543,1.2565,1.256,1.261,1.2629,1.2649,1.2674,1.2668,1.2692,1.2689,1.2689,1.2695,1.2738,1.2748,1.2725,1.28,1.2777,1.2783,1.2792,1.2799,1.2805,1.2801,1.2703,0,0,0,0,0,1.2554,1.2584,1.2601,1.2644,1.2654,1.2662,1.2679,1.2678,1.2698,1.2706,1.2718,1.2738,1.2765,1.2783,1.2809,1.2859,1.2863,1.2881,1.2887,1.2892,1.2896,1.2922,1.293,1.2846,1.2846,1.2846,0,0,1.2577,1.2593,1.2611,1.2649,1.2663,1.2693,1.2669,1.2702,1.2723,1.2711,1.2751,1.2761,1.2783,1.2829,1.285,1.2839,1.292,1.2897,1.29,1.2902,1.2926,1.2934,1.2941,1.2848,1.2848,1.2848,0,0,1.2634,1.2649,1.2685,1.27,1.2723,1.2728,1.2737,1.2757,1.2763,1.2804,1.2795,1.282,1.2868,1.2882,1.2896,1.2957,1.2948,1.2965,1.2995,1.302,1.3026,1.3032,1.3052,1.3059,1.297,1.297,1.297,0,1.2659,1.2703,1.2705,1.2738,1.2753,1.2744,1.2779,1.2794,1.2824,1.2834,1.2822,1.2879,1.2893,1.2942,1.2956,1.2969,1.2977,1.2962,1.3025,1.3031,1.3036,1.3055,1.3063,1.2972,1.2972,1.2971,1.2971,0,1.2733,1.2763,1.279,1.2818,1.2837,1.2872,1.2877,1.2896,1.2894,1.29,1.2941,1.2957,1.2985,1.2997,1.2995,1.3045,1.3037,1.3025,1.3001,1.3046,1.3064,1.3071,1.2974,1.2974,1.2973,1.2973,0,0,1.2805,1.2833,1.2842,1.2854,1.2878,1.2901,1.2934,1.2962,1.2977,1.2998,1.3025,1.3064,1.3053,1.3068,1.3068,1.309,1.3134,1.3075,1.3075,1.3084,1.3188,1.3196,1.3204,1.3129,1.3131,1.3132,1.3186,0,1.2862,1.292,1.2922,1.2975,1.3002,1.2992,1.3021,1.3038,1.3044,1.3068,1.3075,1.3102,1.3086,1.3095,1.3116,1.3125,1.3155,1.3121,1.3153,1.3154,1.3146,1.3214,1.3223,1.3273,1.3193,1.3194,1.3195,0,1.2936,1.2958,1.3014,1.3032,1.3043,1.3069,1.3093,1.3116,1.3135,1.3138,1.3155,1.3151,1.3183,1.316,1.3204,1.318,1.3193,1.3199,1.3201,1.3203,1.3176,1.3216,1.3289,1.3296,1.3206,1.3205,1.3204,0,1.298,1.3025,1.3063,1.3074,1.3097,1.3114,1.3125,1.3142,1.3157,1.3178,1.3188,1.3213,1.3226,1.3245,1.3248,1.323,1.3291,1.3268,1.3293,1.3293,1.3306,1.3305,1.338,1.3317,1.3317,1.3317,1.3316,0,1.3043,1.3077,1.3083,1.3107,1.3144,1.3145,1.3182,1.319,1.3205,1.3229,1.3223,1.3246,1.3248,1.3271,1.3274,1.3309,1.3315,1.3318,1.3317,1.3317,1.3317,1.3325,1.3321,1.3319,1.3318,1.3318,1.3317,0,1.3099,1.3105,1.3146,1.3163,1.3169,1.3195,1.321,1.3231,1.3237,1.3268,1.3275,1.3284,1.331,1.3315,1.3347,1.3348,1.3389,1.3386,1.3383,1.3382,1.3406,1.3403,1.3489,1.3499,1.343,1.3431,1.3432,0,1.3138,1.3163,1.3183,1.3199,1.321,1.3236,1.3252,1.3253,1.327,1.3292,1.3311,1.3337,1.3358,1.3401,1.3409,1.3433,1.343,1.3458,1.3433,1.3432,1.3428,1.3426,1.3428,1.3462,1.3463,1.3464,1.3464,0,1.3205,1.3206,1.323,1.3254,1.3273,1.3292,1.331,1.3323,1.3327,1.3345,1.3373,1.3389,1.342,1.3446,1.3469,1.3479,1.3472,1.3472,1.3479,1.3478,1.3475,1.3475,1.3394,1.347,1.3469,1.3469,1.3469,1.3468,1.3252,1.3274,1.3291,1.3317,1.333,1.3347,1.3368,1.3376,1.3398,1.3424,1.3424,1.3453,1.347,1.35,1.3511,1.3534,1.3524,1.3535,1.3537,1.3539,1.3541,1.3472,1.3538,1.3538,1.3538,1.3538,1.3538,0,1.3317,1.3328,1.3352,1.3376,1.3396,1.3389,1.3408,1.3424,1.345,1.3466,1.3487,1.3517,1.3541,1.3552,1.3575,1.3591,1.3588,1.3597,1.3595,1.3597,1.3548,1.3539,1.3599,1.3599,1.3599,1.3599,1.3599,1.3599,1.3354,1.3389,1.3393,1.3435,1.3445,1.3473,1.3485,1.3499,1.3512,1.3546,1.3566,1.3573,1.3586,1.361,1.3632,1.3634,1.3642,1.3652,1.3653,1.3607,1.3601,1.3595,1.3586,1.3654,1.3654,1.3699,1.37,1.37]},{"header":{"parameterUnit":"m.s-1","parameterCategory":1,"la1":30.2991,"la2":30.254,"lo1":-89.0895,"lo2":-89.0444,"dy":0.0017,"dx":0.0017,"nx":28,"ny":28,"refTime":"2023-07-18T09:00:00:Z","depth":0,"parameterNumber":3,"parameterNumberName":"V-component_of_WINDS"},"data":[0,0,0,0,0,0,0,0,0,0,0,0,0,0,0,0,0,0,0,0,0,0,0,0,0,0,0,0,0,0,0,0,0,0,0,0,0,0,0,0,0,0,0,0,0,0,0,0,0,0,0,0,0,0,0,0,0,0,5.5332,5.5332,0,5.5337,5.5337,5.5337,5.5242,5.5239,5.5237,5.5234,5.5238,5.524,5.5243,0,0,0,0,0,0,0,0,0,0,0,0,0,5.5238,5.524,5.5332,5.5332,5.5332,5.5337,5.5337,5.5337,5.5242,5.5239,5.5236,5.5233,5.5237,5.524,5.5243,0,0,0,0,0,0,0,0,0,0,0,0,0,5.5265,5.5241,5.5332,5.5286,5.5281,5.5337,5.5337,5.5337,5.5243,5.5239,5.5235,5.5232,5.5236,5.524,5.5243,5.5343,0,0,5.5255,5.5256,0,0,0,0,0,0,0,0,5.5263,5.5268,5.5292,5.5289,5.5284,5.5285,5.5305,5.5339,5.5244,5.5258,5.5234,5.523,5.5257,5.5258,5.5268,5.5344,5.5344,5.5255,5.5257,5.5259,5.526,0,0,0,0,0,0,0,5.5261,5.5267,5.5334,5.5293,5.5288,5.5264,5.5263,5.5311,5.5279,5.5256,5.5249,5.5251,5.5254,5.5264,5.5267,5.5344,5.5255,5.5258,5.5261,5.5262,5.55,5.5504,0,0,0,0,0,0,5.5266,5.5266,5.5334,5.5334,5.5264,5.5269,5.5268,5.5289,5.5278,5.5272,5.5255,5.5247,5.526,5.5263,5.5267,5.5382,5.5259,5.5262,5.5265,5.5496,5.5501,5.5506,0,0,0,0,0,0,5.5265,5.5273,5.5334,5.5298,5.5304,5.5274,5.5298,5.5291,5.5301,5.5277,5.527,5.5272,5.5257,5.5262,5.5325,5.5381,5.5264,5.5268,5.5492,5.5498,5.5504,5.5614,0,0,0,0,0,0,5.5262,5.5273,5.5312,5.53,5.5307,5.5393,5.5302,5.5294,5.5308,5.5298,5.5291,5.5286,5.5254,5.532,5.5329,5.5384,5.527,5.5486,5.5494,5.5502,5.5605,5.5623,5.5639,0,0,0,0,0,5.5259,5.5342,5.5314,5.5323,5.5354,5.5396,5.54,5.5362,5.5313,5.5351,5.5335,5.5286,5.5374,5.5327,5.5336,5.5394,5.5483,5.5492,5.5501,5.5598,5.562,5.5638,0,0,0,0,0,0,5.5361,5.534,5.5308,5.539,5.5396,5.538,5.5426,5.5387,5.5406,5.5395,5.5347,5.5346,5.5417,5.5412,5.536,5.5489,5.5419,5.5431,5.549,5.5511,5.5527,5.5526,5.5274,0,0,0,0,0,5.5393,5.5429,5.5409,5.5483,5.5488,5.5457,5.5474,5.5444,5.5448,5.5449,5.5438,5.5443,5.5471,5.5491,5.5515,5.5605,5.5601,5.5648,5.5665,5.5679,5.5689,5.5735,5.5755,5.5536,5.5536,5.5536,0,0,5.5459,5.5452,5.5478,5.5503,5.5504,5.5542,5.5459,5.5503,5.5531,5.5456,5.5515,5.5507,5.5509,5.5585,5.5618,5.5583,5.5749,5.5691,5.5702,5.5704,5.5746,5.5767,5.5785,5.5542,5.5541,5.554,0,0,5.5598,5.5598,5.5659,5.5662,5.5664,5.5643,5.5658,5.5648,5.564,5.5698,5.5643,5.5674,5.5725,5.5728,5.5736,5.5877,5.5833,5.5887,5.5973,5.6019,5.6036,5.6051,5.61,5.6118,5.5897,5.5897,5.5898,0,5.568,5.5736,5.5695,5.5743,5.5755,5.569,5.5751,5.5755,5.5765,5.5775,5.5735,5.5796,5.5793,5.5869,5.5903,5.5913,5.5927,5.5887,5.6037,5.6051,5.6065,5.6111,5.613,5.5904,5.5903,5.5902,5.5902,0,5.5836,5.5875,5.5924,5.5936,5.5954,5.6008,5.5975,5.5998,5.5967,5.595,5.601,5.6004,5.6026,5.6042,5.6012,5.6113,5.6091,5.6045,5.5974,5.6093,5.6135,5.6153,5.5913,5.5911,5.5909,5.5907,0,0,5.6039,5.6028,5.6046,5.605,5.6048,5.6077,5.6128,5.615,5.617,5.618,5.622,5.6264,5.6221,5.6231,5.6201,5.6241,5.6351,5.6189,5.6188,5.6219,5.6461,5.6495,5.6517,5.6323,5.6326,5.6328,5.6461,0,5.6174,5.626,5.6225,5.6314,5.6349,5.6288,5.6332,5.6335,5.632,5.6348,5.6331,5.6363,5.6304,5.631,5.6346,5.633,5.6399,5.632,5.6359,5.6361,5.6359,5.6539,5.6575,5.67,5.6477,5.648,5.6482,0,5.6342,5.6359,5.6452,5.6443,5.6456,5.6496,5.6513,5.654,5.6542,5.6529,5.654,5.6501,5.6549,5.648,5.6545,5.6492,5.6506,5.65,5.6504,5.6505,5.6428,5.6544,5.674,5.6758,5.6508,5.6506,5.6504,0,5.648,5.6525,5.6586,5.6592,5.6583,5.6613,5.661,5.6608,5.6623,5.6638,5.6647,5.6668,5.6679,5.6695,5.6662,5.6615,5.6732,5.666,5.6721,5.6722,5.6748,5.6746,5.6947,5.6759,5.6759,5.6758,5.6758,0,5.6633,5.6692,5.6648,5.6685,5.6749,5.6708,5.6772,5.6763,5.6762,5.6796,5.6744,5.6777,5.6732,5.6761,5.6736,5.6793,5.6799,5.6788,5.6781,5.6792,5.6794,5.68,5.679,5.6763,5.6762,5.6761,5.676,0,5.6797,5.677,5.6832,5.6819,5.6816,5.6864,5.6852,5.6886,5.6868,5.6912,5.6919,5.6891,5.6922,5.6891,5.692,5.6903,5.698,5.696,5.698,5.6974,5.7036,5.7031,5.7247,5.7273,5.707,5.7072,5.7074,0,5.6896,5.694,5.6931,5.695,5.6951,5.6983,5.6998,5.6959,5.6977,5.6982,5.7015,5.7042,5.7061,5.7113,5.7095,5.7116,5.7096,5.7171,5.7099,5.7109,5.7096,5.7093,5.7097,5.7185,5.7187,5.7189,5.7191,0,5.7075,5.7059,5.7083,5.7103,5.7122,5.7136,5.7145,5.7164,5.7123,5.7146,5.7177,5.7192,5.7222,5.7248,5.7265,5.7261,5.722,5.7214,5.7229,5.7241,5.725,5.7245,5.7018,5.7209,5.7207,5.7206,5.7205,5.7204,5.7208,5.7244,5.7243,5.7271,5.7275,5.7284,5.7315,5.7301,5.7327,5.7348,5.7323,5.7361,5.7361,5.7378,5.738,5.7409,5.7377,5.74,5.7405,5.7411,5.742,5.7246,5.7412,5.7411,5.7411,5.741,5.741,0,5.7382,5.7379,5.7406,5.7421,5.7443,5.7402,5.7411,5.7432,5.7466,5.747,5.7489,5.7525,5.755,5.7535,5.7556,5.7582,5.7564,5.7589,5.7586,5.7586,5.7447,5.7431,5.7604,5.7604,5.7604,5.7604,5.7604,5.7604,5.7476,5.7534,5.7518,5.7577,5.7573,5.761,5.7618,5.7626,5.7629,5.7671,5.7692,5.7682,5.7677,5.7698,5.772,5.7714,5.7724,5.7757,5.7744,5.7615,5.7596,5.7578,5.7562,5.7759,5.776,5.788,5.7882,5.7882]}]]